| time (UTC) | temp C | wind direction | speed KPH | gust KPH | rain 1hr cm | rain 24hr cm | rain mn cm | humidity % | barometer mb |
| 20260508050136 | 6 | 105 | 1.6 | 4.8 | 0.00 | 0.00 | 0.00 | 95 | |
| 20260508045632 | 6 | 74 | 0.0 | 3.2 | 0.00 | 0.00 | 0.00 | 95 | |
| 20260508045130 | 6 | 90 | 1.6 | 3.2 | 0.00 | 0.00 | 0.00 | 94 | |
| 20260508044627 | 6 | 90 | 0.0 | 1.6 | 0.00 | 0.00 | 0.00 | 94 | |
| 20260508044123 | 6 | 98 | 0.0 | 0.0 | 0.00 | 0.00 | 0.00 | 94 | |
| 20260508043620 | 7 | 90 | 0.0 | 0.0 | 0.00 | 0.00 | 0.00 | 94 | |
| 20260508043118 | 7 | 90 | 0.0 | 0.0 | 0.00 | 0.00 | 0.00 | 94 | |
| 20260508042614 | 7 | 90 | 0.0 | 0.0 | 0.00 | 0.00 | 0.00 | 94 | |
| 20260508042111 | 7 | 82 | 0.0 | 1.6 | 0.00 | 0.00 | 0.00 | 94 | |
| 20260508041607 | 7 | 83 | 1.6 | 1.6 | 0.00 | 0.00 | 0.00 | 93 | |
| 20260508041104 | 7 | 74 | 0.0 | 0.0 | 0.00 | 0.00 | 0.00 | 93 | |
| 20260508040601 | 7 | 90 | 0.0 | 1.6 | 0.00 | 0.00 | 0.00 | 93 | |
| 20260508040059 | 7 | 105 | 0.0 | 1.6 | 0.00 | 0.53 | 0.53 | 93 | |
| 20260508035555 | 7 | 90 | 1.6 | 1.6 | 0.00 | 0.53 | 0.53 | 92 | |
| 20260508035053 | 8 | 90 | 1.6 | 1.6 | 0.00 | 0.53 | 0.53 | 92 | |
| 20260508034549 | 7 | 90 | 0.0 | 1.6 | 0.00 | 0.53 | 0.53 | 92 | |
| 20260508034046 | 8 | 74 | 0.0 | 0.0 | 0.00 | 0.53 | 0.53 | 91 | |
| 20260508033544 | 8 | 105 | 0.0 | 1.6 | 0.00 | 0.53 | 0.53 | 91 | |
| 20260508033042 | 8 | 81 | 0.0 | 1.6 | 0.00 | 0.53 | 0.53 | 91 | |
| 20260508032538 | 8 | 106 | 0.0 | 0.0 | 0.00 | 0.53 | 0.53 | 90 | |
| 20260508032036 | 8 | 90 | 0.0 | 1.6 | 0.00 | 0.53 | 0.53 | 90 | |
| 20260508031533 | 8 | 66 | 0.0 | 0.0 | 0.00 | 0.53 | 0.53 | 89 | |
| 20260508031029 | 9 | 60 | 0.0 | 1.6 | 0.00 | 0.53 | 0.53 | 89 | |
| 20260508030525 | 9 | 74 | 0.0 | 1.6 | 0.00 | 0.53 | 0.53 | 89 | |
| 20260508030024 | 9 | 66 | 0.0 | 1.6 | 0.00 | 0.53 | 0.53 | 88 | |
| 20260508025519 | 9 | 74 | 0.0 | 3.2 | 0.00 | 0.53 | 0.53 | 88 | |
| 20260508025016 | 9 | 96 | 0.0 | 3.2 | 0.00 | 0.53 | 0.53 | 87 | |
| 20260508024512 | 9 | 285 | 0.0 | 3.2 | 0.00 | 0.53 | 0.53 | 87 | |
| 20260508024009 | 9 | 126 | 0.0 | 1.6 | 0.00 | 0.53 | 0.53 | 87 | |
| 20260508023506 | 10 | 35 | 0.0 | 0.0 | 0.00 | 0.53 | 0.53 | 86 | |
| 20260508023004 | 10 | 74 | 0.0 | 1.6 | 0.00 | 0.53 | 0.53 | 86 | |
| 20260508022459 | 10 | 295 | 0.0 | 3.2 | 0.00 | 0.53 | 0.53 | 86 | |
| 20260508021955 | 10 | 5 | 0.0 | 3.2 | 0.00 | 0.53 | 0.53 | 85 | |
| 20260508021452 | 10 | 90 | 0.0 | 1.6 | 0.00 | 0.53 | 0.53 | 85 | |
| 20260508020948 | 10 | 66 | 0.0 | 1.6 | 0.00 | 0.53 | 0.53 | 84 | |
| 20260508020446 | 10 | 0 | 0.0 | 3.2 | 0.00 | 0.53 | 0.53 | 84 | |
| 20260508015943 | 10 | 82 | 1.6 | 3.2 | 0.00 | 0.53 | 0.53 | 84 | |
| 20260508015441 | 10 | 84 | 1.6 | 3.2 | 0.00 | 0.53 | 0.53 | 83 | |
| 20260508014937 | 10 | 0 | 0.0 | 1.6 | 0.00 | 0.53 | 0.53 | 84 | |
| 20260508014434 | 10 | 331 | 0.0 | 3.2 | 0.00 | 0.53 | 0.53 | 85 | |
| 20260508013930 | 10 | 99 | 0.0 | 0.0 | 0.00 | 0.53 | 0.53 | 85 | |
| 20260508013426 | 10 | 15 | 0.0 | 3.2 | 0.00 | 0.53 | 0.53 | 85 | |
| 20260508012924 | 11 | 20 | 0.0 | 3.2 | 0.00 | 0.53 | 0.53 | 85 | |
| 20260508012420 | 11 | 40 | 0.0 | 3.2 | 0.00 | 0.53 | 0.53 | 84 | |
| 20260508011918 | 11 | 90 | 0.0 | 1.6 | 0.00 | 0.53 | 0.53 | 83 | |
| 20260508011416 | 11 | 285 | 3.2 | 6.4 | 0.00 | 0.53 | 0.53 | 81 | |
| 20260508010913 | 11 | 254 | 0.0 | 3.2 | 0.00 | 0.53 | 0.53 | 80 | |
| 20260508010410 | 11 | 148 | 1.6 | 3.2 | 0.00 | 0.53 | 0.53 | 79 | |
| 20260508005907 | 11 | 32 | 1.6 | 3.2 | 0.00 | 0.53 | 0.53 | 77 | |
| 20260508005404 | 11 | 170 | 3.2 | 3.2 | 0.00 | 0.53 | 0.53 | 76 | |
| 20260508004900 | 11 | 128 | 0.0 | 4.8 | 0.00 | 0.53 | 0.53 | 76 | |
| 20260508004356 | 11 | 352 | 0.0 | 3.2 | 0.00 | 0.53 | 0.53 | 76 | |
| 20260508003853 | 11 | 180 | 1.6 | 4.8 | 0.00 | 0.53 | 0.53 | 75 | |
| 20260508003350 | 11 | 331 | 3.2 | 8.0 | 0.00 | 0.53 | 0.53 | 74 | |
| 20260508002848 | 11 | 173 | 1.6 | 6.4 | 0.00 | 0.53 | 0.53 | 72 | |
| 20260508002343 | 11 | 325 | 1.6 | 4.8 | 0.00 | 0.53 | 0.53 | 72 | |
| 20260508001840 | 12 | 206 | 0.0 | 4.8 | 0.00 | 0.53 | 0.53 | 73 | |
| 20260508001336 | 12 | 285 | 1.6 | 4.8 | 0.00 | 0.53 | 0.53 | 74 | |
| 20260508000832 | 12 | 270 | 0.0 | 3.2 | 0.00 | 0.53 | 0.53 | 74 | |
| 20260508000329 | 12 | 287 | 0.0 | 8.0 | 0.00 | 0.53 | 0.53 | 74 | |
| 20260507235826 | 12 | 246 | 0.0 | 3.2 | 0.00 | 0.53 | 0.53 | 73 | |
| 20260507235323 | 12 | 325 | 0.0 | 8.0 | 0.00 | 0.53 | 0.53 | 71 | |
| 20260507234820 | 12 | 337 | 4.8 | 6.4 | 0.00 | 0.53 | 0.53 | 68 | |
| 20260507234317 | 12 | 285 | 4.8 | 9.7 | 0.00 | 0.53 | 0.53 | 66 | |
| 20260507233813 | 12 | 23 | 0.0 | 6.4 | 0.00 | 0.53 | 0.53 | 68 | |
| 20260507233311 | 13 | 157 | 0.0 | 6.4 | 0.00 | 0.53 | 0.53 | 67 | |
| 20260507232809 | 13 | 321 | 3.2 | 3.2 | 0.00 | 0.53 | 0.53 | 65 | |
| 20260507232306 | 13 | 17 | 3.2 | 4.8 | 0.00 | 0.53 | 0.53 | 66 | |
| 20260507231802 | 13 | 138 | 4.8 | 6.4 | 0.00 | 0.53 | 0.53 | 63 | |
| 20260507231259 | 13 | 322 | 4.8 | 12.9 | 0.00 | 0.53 | 0.53 | 62 | |
| 20260507230755 | 13 | 212 | 3.2 | 6.4 | 0.00 | 0.53 | 0.53 | 64 | |
| 20260507230253 | 14 | 190 | 3.2 | 8.0 | 0.00 | 0.53 | 0.53 | 63 | |
| 20260507225752 | 14 | 251 | 3.2 | 8.0 | 0.00 | 0.53 | 0.53 | 65 | |
| 20260507225249 | 14 | 338 | 6.4 | 9.7 | 0.00 | 0.53 | 0.53 | 65 | |
| 20260507224744 | 13 | 356 | 3.2 | 4.8 | 0.00 | 0.53 | 0.53 | 66 | |
| 20260507224241 | 13 | 205 | 8.0 | 8.0 | 0.00 | 0.53 | 0.53 | 68 | |
| 20260507223738 | 13 | 215 | 0.0 | 9.7 | 0.00 | 0.53 | 0.53 | 68 | |
| 20260507223234 | 13 | 180 | 0.0 | 11.3 | 0.00 | 0.53 | 0.53 | 67 | |
| 20260507222731 | 13 | 114 | 3.2 | 4.8 | 0.00 | 0.53 | 0.53 | 68 | |
| 20260507222227 | 13 | 105 | 3.2 | 12.9 | 0.00 | 0.53 | 0.53 | 68 | |
| 20260507221724 | 13 | 294 | 3.2 | 9.7 | 0.00 | 0.53 | 0.53 | 67 | |
| 20260507221220 | 13 | 301 | 0.0 | 8.0 | 0.00 | 0.53 | 0.53 | 68 | |
| 20260507220717 | 13 | 197 | 9.7 | 12.9 | 0.00 | 0.53 | 0.53 | 67 | |
| 20260507220216 | 14 | 320 | 6.4 | 9.7 | 0.00 | 0.53 | 0.53 | 65 | |
| 20260507215711 | 13 | 201 | 4.8 | 9.7 | 0.00 | 0.53 | 0.53 | 65 | |
| 20260507215209 | 14 | 195 | 8.0 | 16.1 | 0.00 | 0.53 | 0.53 | 65 | |
| 20260507214706 | 13 | 209 | 4.8 | 6.4 | 0.00 | 0.53 | 0.53 | 66 | |
| 20260507214203 | 13 | 270 | 3.2 | 12.9 | 0.00 | 0.53 | 0.53 | 67 | |
| 20260507213658 | 14 | 339 | 3.2 | 11.3 | 0.00 | 0.53 | 0.53 | 67 | |
| 20260507213156 | 14 | 246 | 9.7 | 11.3 | 0.00 | 0.53 | 0.53 | 65 | |
| 20260507212652 | 15 | 300 | 6.4 | 9.7 | 0.00 | 0.53 | 0.53 | 65 | |
| 20260507212149 | 14 | 147 | 3.2 | 14.5 | 0.00 | 0.53 | 0.53 | 68 | |
| 20260507211646 | 14 | 185 | 4.8 | 16.1 | 0.00 | 0.53 | 0.53 | 67 | |
| 20260507211141 | 14 | 180 | 8.0 | 9.7 | 0.00 | 0.53 | 0.53 | 66 | |
| 20260507210639 | 14 | 327 | 3.2 | 14.5 | 0.00 | 0.53 | 0.53 | 67 | |
| 20260507210135 | 15 | 283 | 3.2 | 9.7 | 0.00 | 0.53 | 0.53 | 68 | |
| 20260507205632 | 14 | 201 | 14.5 | 14.5 | 0.00 | 0.53 | 0.53 | 67 | |
| 20260507205128 | 14 | 245 | 8.0 | 9.7 | 0.00 | 0.53 | 0.53 | 67 | |
| 20260507204625 | 14 | 0 | 4.8 | 11.3 | 0.00 | 0.53 | 0.53 | 66 | |
| 20260507204122 | 15 | 214 | 6.4 | 11.3 | 0.00 | 0.53 | 0.53 | 67 | |
| 20260507203620 | 15 | 188 | 12.9 | 12.9 | 0.00 | 0.53 | 0.53 | 65 | |
| 20260507203118 | 15 | 132 | 3.2 | 17.7 | 0.00 | 0.53 | 0.53 | 66 | |
| 20260507202613 | 15 | 161 | 4.8 | 8.0 | 0.00 | 0.53 | 0.53 | 63 | |
| 20260507202110 | 16 | 305 | 3.2 | 8.0 | 0.00 | 0.53 | 0.53 | 61 | |
| 20260507201604 | 16 | 74 | 0.0 | 6.4 | 0.00 | 0.53 | 0.53 | 63 | |
| 20260507201101 | 16 | 312 | 3.2 | 4.8 | 0.00 | 0.53 | 0.53 | 60 | |
| 20260507185729 | 17 | 23 | 4.8 | 9.7 | 0.00 | 0.53 | 0.53 | 38 | |
| 20260507185225 | 17 | 23 | 4.8 | 9.7 | 0.00 | 0.53 | 0.53 | 38 | |
| 20260507184723 | 17 | 293 | 3.2 | 12.9 | 0.00 | 0.53 | 0.53 | 45 | |
| 20260507184221 | 17 | 7 | 0.0 | 12.9 | 0.00 | 0.53 | 0.53 | 42 | |
| 20260507183717 | 17 | 309 | 4.8 | 8.0 | 0.00 | 0.53 | 0.53 | 42 | |
| 20260507183214 | 16 | 348 | 1.6 | 8.0 | 0.00 | 0.53 | 0.53 | 39 | |
| 20260507182712 | 16 | 353 | 4.8 | 8.0 | 0.00 | 0.53 | 0.53 | 38 | |
| 20260507182207 | 16 | 6 | 4.8 | 8.0 | 0.00 | 0.53 | 0.53 | 41 | |
| 20260507181703 | 16 | 26 | 9.7 | 11.3 | 0.00 | 0.53 | 0.53 | 42 | |
| 20260507181200 | 17 | 15 | 3.2 | 8.0 | 0.00 | 0.53 | 0.53 | 45 | |
| 20260507180656 | 16 | 341 | 3.2 | 8.0 | 0.00 | 0.53 | 0.53 | 43 | |
| 20260507180154 | 16 | 12 | 1.6 | 6.4 | 0.00 | 0.53 | 0.53 | 43 | |
| 20260507175649 | 16 | 315 | 4.8 | 8.0 | 0.00 | 0.53 | 0.53 | 42 | |
| 20260507175147 | 16 | 0 | 3.2 | 9.7 | 0.00 | 0.53 | 0.53 | 41 | |
| 20260507174644 | 16 | 339 | 3.2 | 8.0 | 0.00 | 0.53 | 0.53 | 43 | |
| 20260507174142 | 16 | 331 | 4.8 | 4.8 | 0.00 | 0.53 | 0.53 | 46 | |
| 20260507173639 | 16 | 312 | 3.2 | 14.5 | 0.00 | 0.53 | 0.53 | 45 | |
| 20260507173136 | 16 | 311 | 3.2 | 9.7 | 0.00 | 0.53 | 0.53 | 48 | |
| 20260507172632 | 16 | 346 | 0.0 | 12.9 | 0.00 | 0.53 | 0.53 | 49 | |
| 20260507172130 | 16 | 320 | 3.2 | 8.0 | 0.00 | 0.53 | 0.53 | 49 | |
| 20260507171629 | 15 | 356 | 3.2 | 8.0 | 0.00 | 0.53 | 0.53 | 46 | |
| 20260507171127 | 16 | 5 | 4.8 | 6.4 | 0.00 | 0.53 | 0.53 | 49 | |
| 20260507170624 | 16 | 349 | 6.4 | 8.0 | 0.00 | 0.53 | 0.53 | 49 | |
| 20260507170121 | 15 | 19 | 3.2 | 9.7 | 0.00 | 0.53 | 0.53 | 50 | |
| 20260507165616 | 15 | 295 | 8.0 | 8.0 | 0.00 | 0.53 | 0.53 | 54 | |
| 20260507165113 | 15 | 8 | 3.2 | 8.0 | 0.00 | 0.53 | 0.53 | 57 | |
| 20260507164609 | 15 | 356 | 3.2 | 9.7 | 0.00 | 0.53 | 0.53 | 54 |